Mithapur Airport

IN-0106 · Gujarat, India

Storia di METAR IN-0106 · Mithapur Airport

Di seguito sono riportati i METAR degli ultimi giorni. Seleziona un anno per sfogliare i METAR più vecchi, dall'anno 2007 in poi.

16 luglio 2024

Tempo Codice Tempo meteorologico Temp. Vista Base nuvolosa Vento METAR/SPECI
00:00
M
32 °C 6 km - 240° 240° 8 kt METAR OPKC 151830Z 24008KT 6000 FEW030 SCT100 32/25 Q1001 NOSIG

15 luglio 2024

Tempo Codice Tempo meteorologico Temp. Vista Base nuvolosa Vento METAR/SPECI
23:30
M
32 °C 6 km - 240° 240° 10 kt METAR OPKC 151800Z 24010KT 6000 FEW030 SCT100 32/25 Q1001 NOSIG
23:00
M
32 °C 6 km - 230° 230° 10 kt METAR OPKC 151730Z 23010KT 6000 FEW030 SCT100 32/25 Q1001 NOSIG
22:30
M
32 °C 6 km - 230° 230° 8 kt METAR OPKC 151700Z 23008KT 6000 FEW030 SCT100 32/25 Q1000 NOSIG
22:00
M
32 °C 6 km - 240° 240° 8 kt METAR OPKC 151630Z 24008KT 6000 FEW030 SCT100 32/25 Q1000 NOSIG
21:30
M
32 °C 6 km - 260° 260° 7 kt METAR OPKC 151600Z 26007KT 6000 SCT030 32/25 Q1000 NOSIG
21:00
M
32 °C 6 km - 220° 220° 5 kt METAR OPKC 151530Z 22005KT 6000 SCT030 32/25 Q0999 NOSIG
20:30
M
32 °C 6 km - 240° 240° 9 kt METAR OPKC 151500Z 24009KT 6000 FEW030 32/25 Q0998 NOSIG
20:00
M
33 °C 6 km - 240° 240° 11 kt METAR OPKC 151430Z 24011KT 6000 FEW030 33/24 Q0998 NOSIG
19:30
M
33 °C 6 km - 250° 250° 10 kt METAR OPKC 151400Z 25010KT 6000 FEW030 33/24 Q0998 NOSIG
19:00
M
33 °C 6 km - 240° 240° 5 kt METAR OPKC 151330Z 24005KT 6000 FEW030 33/24 Q0998 NOSIG
18:30
M
34 °C 6 km - 240° 240° 11 kt METAR OPKC 151300Z 24011KT 6000 FEW030 34/24 Q0997 NOSIG
18:00
M
34 °C 6 km - 250° 250° 9 kt METAR OPKC 151230Z 25009KT 6000 FEW030 34/24 Q0997 NOSIG
17:30
M
34 °C 6 km - 250° 250° 7 kt METAR OPKC 151200Z 25007KT 6000 FEW030 34/24 Q0997 NOSIG
17:00
M
34 °C 5 km - 250° 250° 10 kt METAR OPKC 151130Z 25010KT 5000 FU SCT030 34/24 Q0997 NOSIG
16:30
I
34 °C 4 km - 240° 240° 10 kt METAR OPKC 151100Z 24010KT 4000 FU SCT030 34/25 Q0997 TEMPO 1000 TSRA FEW025CB
16:00
I
33 °C 3 km - 260° 260° 10 kt METAR OPKC 151030Z 26010KT 3000 FU FEW020 SCT030 33/26 Q0997 TEMPO 1000 TSRA FEW025CB
15:30
I
33 °C 2 km 8.000 ft 260° 260° 5 kt METAR OPKC 151000Z 26005KT 2000 RA FEW025CB SCT020 BKN080 33/26 Q0998 TEMPO 1000 TSRA FEW025CB
15:00
M
36 °C 6 km - 210° 210° 15 kt METAR OPKC 150930Z 21015KT 6000 SCT030 36/24 Q0998 NOSIG
14:30
M
36 °C 5 km - 210° 210° 14 kt METAR OPKC 150900Z 21014KT 5000 HZ SCT030 36/24 Q0998 NOSIG
14:00
M
36 °C 5 km - 210° 210° 14 kt METAR OPKC 150830Z 21014KT 5000 HZ SCT030 36/24 Q0998 NOSIG
13:30
M
36 °C 5 km - 240° 240° 10 kt METAR OPKC 150800Z 24010KT 5000 HZ SCT030 36/24 Q0999 NOSIG
13:00
M
36 °C 5 km 3.000 ft 230° 230° 8 kt METAR OPKC 150730Z 23008KT 5000 HZ FEW020 BKN030 36/24 Q0999 NOSIG
12:30
M
36 °C 5 km 3.000 ft 210° 210° 4 kt METAR OPKC 150700Z 21004KT 5000 HZ FEW030 BKN030 36/24 Q0999 NOSIG
12:00
M
36 °C 5 km - 290° 290° 4 kt METAR OPKC 150630Z 29004KT 5000 HZ SCT030 36/24 Q1000 NOSIG
11:30
M
35 °C 5 km - 290° 290° 8 kt METAR OPKC 150600Z 29008KT 5000 HZ SCT030 35/24 Q1000 NOSIG
11:00
M
35 °C 5 km - 300° 300° 4 kt METAR OPKC 150530Z 30004KT 5000 HZ SCT030 35/24 Q1000 NOSIG
10:30
M
34 °C 5 km - 300° 300° 5 kt METAR OPKC 150500Z 30005KT 5000 HZ SCT030 34/24 Q1000 NOSIG
10:00
M
33 °C 5 km - 290° 290° 4 kt METAR OPKC 150430Z 29004KT 5000 HZ FEW030 33/24 Q1000 NOSIG
09:30
M
33 °C 5 km - 280° 280° 8 kt METAR OPKC 150400Z 28008KT 5000 HZ FEW030 33/26 Q1000 NOSIG
09:00
M
33 °C 5 km - 300° 300° 7 kt METAR OPKC 150330Z 30007KT 5000 FU FEW030 33/26 Q0999 NOSIG
08:30
M
32 °C 5 km - 250° 250° 7 kt METAR OPKC 150300Z 25007KT 5000 FU FEW030 32/26 Q0999 NOSIG
08:00
M
31 °C 5 km - 260° 260° 3 kt METAR OPKC 150230Z 26003KT 5000 FU SCT030 31/26 Q0999 NOSIG
07:30
M
31 °C 5 km - 290° 290° 5 kt METAR OPKC 150200Z 29005KT 5000 FU SCT030 31/26 Q0999 NOSIG
07:00
M
30 °C 5 km - 290° 290° 6 kt METAR OPKC 150130Z 29006KT 5000 FU SCT030 30/26 Q0999 NOSIG
06:30
M
30 °C 5 km - 260° 260° 9 kt METAR OPKC 150100Z 26009KT 5000 FU SCT030 30/26 Q0998 NOSIG
06:00
M
31 °C 5 km - 260° 260° 8 kt METAR OPKC 150030Z 26008KT 5000 FU SCT030 31/26 Q0998 NOSIG
05:30
M
31 °C 5 km - 270° 270° 6 kt METAR OPKC 150000Z 27006KT 5000 FU SCT030 31/26 Q0998 NOSIG
05:00
M
31 °C 5 km - 270° 270° 9 kt METAR OPKC 142330Z 27009KT 5000 FU SCT030 31/26 Q0998 NOSIG
04:30
M
31 °C 5 km - 270° 270° 7 kt METAR OPKC 142300Z 27007KT 5000 FU SCT030 31/26 Q0998 NOSIG
04:00
M
31 °C 5 km - 270° 270° 6 kt METAR OPKC 142230Z 27006KT 5000 FU SCT030 31/26 Q0998 NOSIG
03:30
M
31 °C 5 km - 260° 260° 8 kt METAR OPKC 142200Z 26008KT 5000 FU SCT030 31/26 Q0998 NOSIG
03:00
M
31 °C 5 km - 260° 260° 9 kt METAR OPKC 142130Z 26009KT 5000 FU SCT030 31/26 Q0998 NOSIG
02:30
M
31 °C 5 km 3.000 ft 250° 250° 9 kt METAR OPKC 142100Z 25009KT 5000 FU BKN030 31/26 Q0998 NOSIG
02:00
M
31 °C 5 km 3.000 ft 250° 250° 8 kt METAR OPKC 142030Z 25008KT 5000 FU BKN030 31/26 Q0998 NOSIG
01:30
M
31 °C 5 km 3.000 ft 240° 240° 10 kt METAR OPKC 142000Z 24010KT 5000 FU BKN030 31/26 Q0998 NOSIG
01:00
M
31 °C 5 km 3.000 ft 250° 250° 10 kt METAR OPKC 141930Z 25010KT 5000 FU BKN030 31/26 Q0999 NOSIG
00:30
M
31 °C 5 km 3.000 ft 250° 250° 9 kt METAR OPKC 141900Z 25009KT 5000 FU BKN030 31/26 Q0999 NOSIG
00:00
M
31 °C 5 km 3.000 ft 240° 240° 8 kt METAR OPKC 141830Z 24008KT 5000 FU BKN030 31/26 Q0999 NOSIG

14 luglio 2024

Tempo Codice Tempo meteorologico Temp. Vista Base nuvolosa Vento METAR/SPECI
23:30
M
31 °C 5 km 3.000 ft 240° 240° 9 kt METAR OPKC 141800Z 24009KT 5000 FU BKN030 31/26 Q0999 NOSIG
23:00
M
32 °C 5 km 3.000 ft 240° 240° 10 kt METAR OPKC 141730Z 24010KT 5000 FU BKN030 32/26 Q0998 NOSIG
22:30
M
31 °C 5 km - 220° 220° 10 kt METAR OPKC 141700Z 22010KT 5000 FU SCT030 31/25 Q0998 NOSIG
22:00
M
32 °C 5 km - 240° 240° 8 kt METAR OPKC 141630Z 24008KT 5000 FU SCT030 32/26 Q0998 NOSIG
21:30
M
32 °C 5 km - 240° 240° 9 kt METAR OPKC 141600Z 24009KT 5000 FU SCT030 32/25 Q0997 NOSIG
21:00
M
32 °C 5 km - 240° 240° 8 kt METAR OPKC 141530Z 24008KT 5000 HZ SCT030 32/25 Q0997 NOSIG
20:30
M
32 °C 5 km 3.000 ft 230° 230° 12 kt METAR OPKC 141500Z 23012KT 5000 HZ BKN030 32/25 Q0996 NOSIG
20:00
M
32 °C 5 km 3.000 ft 230° 230° 11 kt METAR OPKC 141430Z 23011KT 5000 HZ BKN030 32/25 Q0996 NOSIG
19:30
M
33 °C 5 km 3.000 ft 220° 220° 12 kt METAR OPKC 141400Z 22012KT 5000 HZ BKN030 33/25 Q0996 NOSIG
19:00
M
33 °C 6 km - 220° 220° 11 kt METAR OPKC 141330Z 22011KT 6000 SCT030 33/24 Q0995 NOSIG
18:30
M
33 °C 6 km - 220° 220° 10 kt METAR OPKC 141300Z 22010KT 6000 SCT030 33/24 Q0995 NOSIG
18:00
M
34 °C 6 km - 240° 240° 11 kt METAR OPKC 141230Z 24011KT 6000 SCT030 34/24 Q0995 NOSIG
17:30
M
35 °C 6 km - 240° 240° 9 kt METAR OPKC 141200Z 24009KT 6000 SCT030 35/24 Q0995 NOSIG
17:00
M
35 °C 6 km - 230° 230° 12 kt METAR OPKC 141130Z 23012KT 6000 SCT030 35/24 Q0995 NOSIG
16:30
M
35 °C 6 km - 240° 240° 15 kt METAR OPKC 141100Z 24015KT 6000 SCT030 35/23 Q0995 NOSIG
16:00
M
35 °C 6 km - 240° 240° 15 kt METAR OPKC 141030Z 24015KT 6000 SCT030 35/23 Q0996 NOSIG
15:30
M
35 °C 6 km - 240° 240° 15 kt METAR OPKC 141000Z 24015KT 6000 SCT030 35/23 Q0996 NOSIG
15:00
M
35 °C 6 km - 240° 240° 16 kt METAR OPKC 140930Z 24016KT 6000 SCT030 35/23 Q0996 NOSIG
14:30
M
36 °C 6 km 3.000 ft 240° 240° 12 kt METAR OPKC 140900Z 24012KT 6000 BKN030 36/23 Q0996 NOSIG
14:00
M
35 °C 6 km 3.000 ft 240° 240° 16 kt METAR OPKC 140830Z 24016KT 6000 SCT020 BKN030 35/23 Q0997 NOSIG
13:30
M
34 °C 6 km 3.000 ft 240° 240° 14 kt METAR OPKC 140800Z 24014KT 6000 SCT020 BKN030 34/24 Q0997 NOSIG
13:00
M
35 °C 6 km 3.000 ft 240° 240° 15 kt METAR OPKC 140730Z 24015KT 6000 SCT020 BKN030 35/24 Q0997 NOSIG
12:30
M
34 °C 6 km 3.000 ft 240° 240° 14 kt METAR OPKC 140700Z 24014KT 6000 SCT020 BKN030 34/25 Q0998 NOSIG
12:00
M
33 °C 6 km 3.000 ft 240° 240° 10 kt METAR OPKC 140630Z 24010KT 6000 FEW020 BKN030 33/26 Q0998 NOSIG
11:30
M
33 °C 6 km 3.000 ft 240° 240° 10 kt METAR OPKC 140600Z 24010KT 6000 FEW020 BKN030 33/26 Q0998 NOSIG
11:00
M
33 °C 6 km 3.000 ft 240° 240° 12 kt METAR OPKC 140530Z 24012KT 6000 FEW020 BKN030 33/26 Q0999 NOSIG
10:30
M
33 °C 6 km 3.000 ft 240° 240° 12 kt METAR OPKC 140500Z 24012KT 6000 FEW020 BKN030 33/25 Q0998 NOSIG
10:00
M
33 °C 5 km 3.000 ft 260° 260° 8 kt METAR OPKC 140430Z 26008KT 5000 FU SCT020 BKN030 33/25 Q0998 NOSIG
09:30
M
32 °C 5 km 3.000 ft 260° 260° 8 kt METAR OPKC 140400Z 26008KT 5000 FU SCT020 BKN030 32/25 Q0998 NOSIG
09:00
M
32 °C 5 km 3.000 ft 270° 270° 9 kt METAR OPKC 140330Z 27009KT 5000 FU SCT020 BKN030 32/26 Q0998 NOSIG
08:30
M
32 °C 5 km 3.000 ft 250° 250° 6 kt METAR OPKC 140300Z 25006KT 5000 FU SCT020 BKN030 32/26 Q0998 NOSIG
08:00
M
31 °C 5 km 3.000 ft 270° 270° 9 kt METAR OPKC 140230Z 27009KT 5000 FU SCT020 BKN030 31/26 Q0998 NOSIG
07:30
M
31 °C 5 km 3.000 ft 270° 270° 6 kt METAR OPKC 140200Z 27006KT 5000 FU SCT020 BKN030 31/26 Q0998 NOSIG
07:00
M
31 °C 5 km - 270° 270° 9 kt METAR OPKC 140130Z 27009KT 5000 FU FEW020 SCT030 31/26 Q0998 NOSIG
06:30
M
31 °C 5 km - 280° 280° 8 kt METAR OPKC 140100Z 28008KT 5000 FU FEW020 SCT030 31/26 Q0998 NOSIG
06:00
M
31 °C 5 km - 260° 260° 11 kt METAR OPKC 140030Z 26011KT 5000 FU FEW020 SCT030 31/26 Q0997 NOSIG
05:30
M
31 °C 5 km 3.000 ft 250° 250° 9 kt METAR OPKC 140000Z 25009KT 5000 FU SCT020 BKN030 31/26 Q0997 NOSIG
05:00
M
31 °C 5 km 3.000 ft 260° 260° 9 kt METAR OPKC 132330Z 26009KT 5000 FU SCT020 BKN030 31/26 Q0997 NOSIG
04:30
M
31 °C 5 km 3.000 ft 260° 260° 7 kt METAR OPKC 132300Z 26007KT 5000 FU SCT020 BKN030 31/25 Q0997 NOSIG
04:00
M
31 °C 5 km 3.000 ft 260° 260° 10 kt METAR OPKC 132230Z 26010KT 5000 FU SCT020 BKN030 31/25 Q0997 NOSIG
03:30
M
31 °C 5 km 3.000 ft 270° 270° 13 kt METAR OPKC 132200Z 27013KT 5000 FU SCT020 BKN030 31/25 Q0997 NOSIG
03:00
M
31 °C 5 km 3.000 ft 250° 250° 9 kt METAR OPKC 132130Z 25009KT 5000 FU SCT020 BKN030 31/26 Q0998 NOSIG
02:30
M
31 °C 5 km 3.000 ft 250° 250° 8 kt METAR OPKC 132100Z 25008KT 5000 FU SCT020 BKN030 31/26 Q0998 NOSIG
02:00
M
31 °C 5 km 3.000 ft 260° 260° 8 kt METAR OPKC 132030Z 26008KT 5000 FU SCT020 BKN030 31/25 Q0998 NOSIG
01:30
M
31 °C 5 km 3.000 ft 260° 260° 10 kt METAR OPKC 132000Z 26010KT 5000 FU SCT020 BKN030 31/26 Q0998 NOSIG
01:00
M
31 °C 5 km 3.000 ft 250° 250° 10 kt METAR OPKC 131930Z 25010KT 5000 FU SCT020 BKN030 31/26 Q0998 NOSIG
00:30
M
31 °C 5 km 3.000 ft 260° 260° 12 kt METAR OPKC 131900Z 26012KT 5000 FU SCT020 BKN030 31/26 Q0999 TEMPO 25025KT
00:00
M
31 °C 5 km 3.000 ft 250° 250° 11 kt METAR OPKC 131830Z 25011KT 5000 FU SCT020 BKN030 31/26 Q0998 TEMPO 25025KT

13 luglio 2024

Tempo Codice Tempo meteorologico Temp. Vista Base nuvolosa Vento METAR/SPECI
23:30
M
31 °C 5 km 3.000 ft 250° 250° 12 kt METAR OPKC 131800Z 25012KT 5000 FU SCT020 BKN030 31/26 Q0998 TEMPO 25 025KT
23:00
M
31 °C 5 km 3.000 ft 250° 250° 12 kt METAR OPKC 131730Z 25012KT 5000 FU SCT020 BKN030 31/26 Q0998 TEMPO 25 025KT
22:30
M
31 °C 5 km 3.000 ft 250° 250° 14 kt METAR OPKC 131700Z 25014KT 5000 FU SCT020 BKN030 31/26 Q0998 TEMPO 25025KT
22:00
M
31 °C 5 km - 240° 240° 17 kt METAR OPKC 131630Z 24017KT 5000 FU FEW020 SCT030 31/26 Q0998 TEMPO 25025KT
21:30
M
31 °C 5 km - 250° 250° 15 kt METAR OPKC 131600Z 25015KT 5000 FU FEW020 SCT030 31/26 Q0997 TEMPO 25015G25KT
21:00
M
32 °C 5 km - 240° 240° 15 kt METAR OPKC 131530Z 24015KT 5000 FU FEW020 SCT030 32/26 Q0997 TEMPO 25015G25KT
20:30
M
32 °C 5 km - 240° 240° 12 kt METAR OPKC 131500Z 24012KT 5000 FU FEW020 SCT030 32/26 Q0997 TEMPO 25015G25KT
20:00
M
32 °C 5 km - 230° 230° 15 kt METAR OPKC 131430Z 23015KT 5000 HZ FEW020 SCT030 32/25 Q0996 TEMPO 25015G25KT
19:30
M
32 °C 5 km - 240° 240° 15 kt METAR OPKC 131400Z 24015KT 5000 HZ FEW020 SCT030 32/25 Q0996 TEMPO 25015G25KT
19:00
M
33 °C 5 km 2.000 ft 240° 240° 17 kt METAR OPKC 131330Z 24017KT 5000 HZ BKN020 33/25 Q0996 TEMPO 25015G25K T
18:30
M
33 °C 5 km 2.000 ft 240° 240° 15 kt METAR OPKC 131300Z 24015KT 5000 HZ BKN020 33/25 Q0996 TEMPO 25015G25KT
18:00
M
33 °C 5 km 2.000 ft 230° 230° 15 kt METAR OPKC 131230Z 23015KT 5000 HZ BKN020 33/25 Q0996 TEMPO 25015G25KT
17:30
M
34 °C 5 km 2.000 ft 240° 240° 17 kt METAR OPKC 131200Z 24017KT 5000 HZ BKN020 34/25 Q0996 TEMPO 24017G25K T
17:00
M
34 °C 5 km 2.000 ft 240° 240° 16 kt METAR OPKC 131130Z 24016KT 5000 HZ BKN020 34/22 Q0996 TEMPO 25015G25KT
16:30
M
34 °C 5 km 2.000 ft 240° 240° 20 kt METAR OPKC 131100Z 24020KT 5000 HZ BKN020 34/25 Q0996 TEMPO 25015G25K T
16:00
M
34 °C 5 km 2.000 ft 240° 240° 20 kt METAR OPKC 131030Z 24020KT 5000 HZ BKN020 34/25 Q0996 TEMPO 25015G25KT
15:30
M
35 °C 5 km 2.000 ft 240° 240° 18 kt METAR OPKC 131000Z 24018KT 5000 HZ BKN020 35/25 Q0996 TEMPO 25015G25KT
15:00
M
35 °C 5 km 2.000 ft 240° 240° 18 kt METAR OPKC 130930Z 24018KT 5000 HZ BKN020 35/24 Q0997 TEMPO 25015G25KT
14:30
M
35 °C 5 km 2.000 ft 240° 240° 18 kt METAR OPKC 130900Z 24018KT 5000 HZ BKN020 35/24 Q0997 TEMPO 25015G25KT
14:00
M
34 °C 5 km 2.000 ft 240° 240° 15 kt METAR OPKC 130830Z 24015KT 5000 HZ BKN020 34/25 Q0997 TEMPO 25015G25KT
13:30
M
34 °C 5 km 2.000 ft 240° 240° 20 kt METAR OPKC 130800Z 24020KT 5000 HZ BKN020 34/25 Q0998 TEMPO 25015G25KT
13:00
M
34 °C 5 km 2.000 ft 240° 240° 15 kt METAR OPKC 130730Z 24015KT 5000 HZ BKN020 34/25 Q0998 TEMPO 25015G25KT
12:30
M
33 °C 5 km 2.000 ft 250° 250° 16 kt METAR OPKC 130700Z 25016KT 5000 HZ BKN020 33/25 Q0998 TEMPO 25015G25KT
12:00
M
35 °C 5 km 2.000 ft 250° 250° 16 kt METAR OPKC 130630Z 25016KT 5000 HZ BKN020 35/25 Q0998 TEMPO 25015G25KT
11:30
M
33 °C 5 km 2.000 ft 250° 250° 15 kt METAR OPKC 130600Z 25015KT 5000 HZ BKN020 33/25 Q0998 TEMPO 26015G25KT
Segnala modifiche